Regional Weather Roundup
Issued by NWS

Home | Current Version | Previous Version | Text Only | Print | Product List | Glossary On
Versions: 1 2 3 4 5 6 7 8 9 10 11 12 13 14 15 16 17 18 19 20 21 22 23 24 25 26 27 28 29 30 31 32 33 34 35 36 37 38 39 40 41 42 43 44 45 46 47 48 49 50
000
ASCA42 TJSJ 211910
RWRPR
PUERTO RICO/U.S. VIRGIN ISLANDS HOURLY WEATHER ROUNDUP
NATIONAL WEATHER SERVICE SAN JUAN PR
300 PM AST TUE FEB 21 2017

PRZ001>002-007>008-010-212000-
PUERTO RICO

CITY           SKY/WX    TMP DP  RH WIND       PRES   REMARKS
SAN JUAN LMM   MOSUNNY   82  66  57 NW15      29.86F
AGUADILLA      CLOUDY    79  66  65 N12       29.90F
CEIBA          MOSUNNY   84  63  48 N17G23    29.87F
$$

VIZ001>002-212000-
U.S. VIRGIN ISLANDS

CITY           SKY/WX    TMP DP  RH WIND       PRES   REMARKS
CHARLOTTE AMA  SUNNY     81  66  61 NW23      29.83F
CHRISTIANSTED  PTSUNNY   82  64  54 N14G25    29.84F
$$

HOURLY WEATHER ROUNDUP FOR THE NEWS MEDIA

CITY           SKY/WX    TMP DP  RH WIND       PRES   REMARKS
ORLANDO        CLOUDY    77  60  55 SE15G21   30.02F
NEW YORK       CLOUDY    44  31  60 S9        30.29F
NEWARK         CLOUDY    45  31  58 SE7       30.27F
CHICAGO        CLOUDY    62  54  74 SW9       29.91F
HARTFORD       MOSUNNY   45  27  49 S10       30.27F
BOSTON         PTSUNNY   39  27  62 E14       30.28F WCI  31
DALLAS         SUNNY     72  48  42 NW14G20   29.95F
PHILADELPHIA   CLOUDY    51  29  42 S12       30.25F
LOS ANGELES    CLOUDY    61  58  90 W6        30.34S
WASHINGTON DC  CLOUDY    57  28  33 S8G16     30.20F


USA.gov is the U.S. government's official web portal to all federal, state and local government web resources and services.